FIN3AW EFHK-EDDB

Flight info

Callsign FIN3AW
Flight time 1h 45m
Altitude 34000
Route VALOX DCT DANKA DCT ROSAX DCT LEMSI DCT PIMEX P739 DEREX DCT GOSOT Z131 BANUB DCT CIPPI DCT USEDU/N0450F350 Z14 BEKBA T280 KETAP KETAP1R
Aircraft A321/M-SDE3FGHIRWY/LB1

Departure

Time 2026-05-07 14:13
Airport Helsinki Vantaa Airport (EFHK)

Arrival

Time 2026-05-07 15:58
Airport Berlin Brandenburg Airport (EDDB)
Time Latitude Longitude Altitude Speed Heading
2026-05-07 13:51 60.31980 24.96900 188 ft 0 kts 216°
2026-05-07 14:05 60.31984 24.96907 188 ft 2 kts 216°
2026-05-07 14:05 60.31996 24.96925 188 ft 2 kts 216°
2026-05-07 14:05 60.32009 24.96943 188 ft 2 kts 216°
2026-05-07 14:05 60.32016 24.96968 188 ft 2 kts 268°
2026-05-07 14:06 60.32012 24.96997 188 ft 2 kts 310°
2026-05-07 14:06 60.32006 24.97009 188 ft 1 kts 334°
2026-05-07 14:06 60.32000 24.97013 188 ft 0 kts 333°
2026-05-07 14:08 60.32010 24.97004 188 ft 2 kts 333°
2026-05-07 14:08 60.32029 24.96983 188 ft 4 kts 332°
2026-05-07 14:08 60.32063 24.96947 188 ft 6 kts 332°
2026-05-07 14:08 60.32109 24.96897 188 ft 11 kts 332°
2026-05-07 14:09 60.32208 24.96778 188 ft 19 kts 330°
2026-05-07 14:09 60.32288 24.96685 188 ft 4 kts 330°
2026-05-07 14:09 60.32319 24.96649 188 ft 5 kts 330°
2026-05-07 14:09 60.32337 24.96627 188 ft 0 kts 330°
2026-05-07 14:11 60.32338 24.96627 188 ft 1 kts 330°
2026-05-07 14:11 60.32391 24.96562 188 ft 12 kts 319°
2026-05-07 14:11 60.32394 24.96410 188 ft 12 kts 228°
2026-05-07 14:12 60.32306 24.96222 188 ft 31 kts 226°
2026-05-07 14:12 60.32044 24.95658 188 ft 85 kts 223°
2026-05-07 14:12 60.31504 24.94489 188 ft 145 kts 231°
2026-05-07 14:12 60.30712 24.92710 460 ft 185 kts 225°
2026-05-07 14:13 60.29794 24.90881 1295 ft 190 kts 217°
2026-05-07 14:13 60.28693 24.89552 2254 ft 190 kts 204°
2026-05-07 14:13 60.27438 24.88477 2936 ft 205 kts 206°
2026-05-07 14:13 60.26122 24.87169 3590 ft 222 kts 207°
2026-05-07 14:14 60.24713 24.85698 4014 ft 237 kts 208°
2026-05-07 14:14 60.23166 24.84340 4394 ft 252 kts 199°
2026-05-07 14:14 60.21445 24.83396 5022 ft 257 kts 194°
2026-05-07 14:14 60.19696 24.82596 5693 ft 259 kts 193°
2026-05-07 14:15 60.17942 24.81811 6372 ft 263 kts 193°
2026-05-07 14:15 60.16137 24.80989 7059 ft 266 kts 196°
2026-05-07 14:15 60.14455 24.79633 7730 ft 265 kts 212°
2026-05-07 14:15 60.12939 24.77460 8175 ft 275 kts 220°
2026-05-07 14:16 60.11431 24.74989 8758 ft 282 kts 221°
2026-05-07 14:16 60.09925 24.72492 9435 ft 283 kts 221°
2026-05-07 14:16 60.08408 24.69999 10154 ft 283 kts 221°
2026-05-07 14:16 60.06858 24.67470 10611 ft 292 kts 221°
2026-05-07 14:17 60.05258 24.64875 10900 ft 307 kts 221°
2026-05-07 14:17 60.03563 24.62137 11148 ft 321 kts 221°
2026-05-07 14:17 60.01802 24.59306 11667 ft 327 kts 221°
2026-05-07 14:17 60.00039 24.56483 12297 ft 329 kts 221°
2026-05-07 14:18 59.98228 24.53586 12904 ft 330 kts 221°
2026-05-07 14:18 59.96453 24.50751 13518 ft 331 kts 222°
2026-05-07 14:18 59.94653 24.47876 14094 ft 333 kts 222°
2026-05-07 14:18 59.92856 24.45012 14631 ft 335 kts 222°
2026-05-07 14:19 59.91026 24.42099 15173 ft 337 kts 222°
2026-05-07 14:19 59.89195 24.39189 15740 ft 338 kts 222°
2026-05-07 14:19 59.87369 24.36290 16269 ft 339 kts 222°
2026-05-07 14:19 59.85509 24.33344 16818 ft 341 kts 221°
2026-05-07 14:20 59.83669 24.30434 17337 ft 342 kts 221°
2026-05-07 14:20 59.81773 24.27438 17867 ft 344 kts 222°
2026-05-07 14:20 59.79908 24.24497 18352 ft 346 kts 222°
2026-05-07 14:20 59.78029 24.21538 18836 ft 347 kts 222°
2026-05-07 14:21 59.76140 24.18567 19330 ft 348 kts 222°
2026-05-07 14:21 59.74238 24.15579 19813 ft 349 kts 222°
2026-05-07 14:21 59.72303 24.12681 20270 ft 352 kts 219°
2026-05-07 14:21 59.70303 24.09851 20737 ft 353 kts 219°
2026-05-07 14:22 59.68326 24.07045 21158 ft 354 kts 219°
2026-05-07 14:22 59.66324 24.04208 21590 ft 355 kts 219°
2026-05-07 14:22 59.64310 24.01362 22007 ft 357 kts 219°
2026-05-07 14:22 59.62283 23.98506 22432 ft 358 kts 219°
2026-05-07 14:23 59.60278 23.95684 22842 ft 359 kts 219°
2026-05-07 14:23 59.58248 23.92829 23225 ft 360 kts 219°
2026-05-07 14:23 59.56211 23.89962 23617 ft 361 kts 220°
2026-05-07 14:23 59.54155 23.87075 24000 ft 362 kts 220°
2026-05-07 14:24 59.52124 23.84227 24345 ft 364 kts 220°
2026-05-07 14:24 59.50063 23.81298 24713 ft 364 kts 221°
2026-05-07 14:24 59.48102 23.78167 25050 ft 364 kts 224°
2026-05-07 14:24 59.46254 23.74797 25385 ft 364 kts 228°
2026-05-07 14:25 59.44519 23.71208 25701 ft 365 kts 230°
2026-05-07 14:25 59.42798 23.67534 26012 ft 367 kts 230°
2026-05-07 14:25 59.41060 23.63833 26330 ft 368 kts 230°
2026-05-07 14:25 59.39316 23.60123 26642 ft 369 kts 230°
2026-05-07 14:26 59.37582 23.56434 26932 ft 371 kts 230°
2026-05-07 14:26 59.35842 23.52738 27226 ft 372 kts 230°
2026-05-07 14:26 59.34071 23.48980 27497 ft 374 kts 230°
2026-05-07 14:26 59.32317 23.45262 27748 ft 375 kts 230°
2026-05-07 14:27 59.30538 23.41499 28000 ft 377 kts 230°
2026-05-07 14:27 59.28766 23.37752 28248 ft 379 kts 230°
2026-05-07 14:27 59.26988 23.34003 28512 ft 380 kts 229°
2026-05-07 14:27 59.25180 23.30197 28756 ft 382 kts 229°
2026-05-07 14:28 59.23359 23.26368 28995 ft 383 kts 229°
2026-05-07 14:28 59.21560 23.22590 29226 ft 385 kts 229°
2026-05-07 14:28 59.19729 23.18753 29457 ft 386 kts 229°
2026-05-07 14:28 59.17911 23.14950 29695 ft 387 kts 229°
2026-05-07 14:29 59.16072 23.11109 29918 ft 389 kts 229°
2026-05-07 14:29 59.14221 23.07250 30199 ft 388 kts 229°
2026-05-07 14:29 59.12384 23.03430 30511 ft 387 kts 229°
2026-05-07 14:29 59.10550 22.99618 30829 ft 386 kts 229°
2026-05-07 14:30 59.08710 22.95800 31140 ft 384 kts 230°
2026-05-07 14:30 59.06899 22.92053 31385 ft 383 kts 229°
2026-05-07 14:30 59.05061 22.88250 31606 ft 383 kts 229°
2026-05-07 14:30 59.03256 22.84527 31814 ft 383 kts 229°
2026-05-07 14:31 59.01422 22.80749 32000 ft 384 kts 229°
2026-05-07 14:31 58.99600 22.76995 32208 ft 384 kts 230°
2026-05-07 14:31 58.97767 22.73228 32390 ft 384 kts 229°
2026-05-07 14:31 58.95950 22.69500 32542 ft 386 kts 230°
2026-05-07 14:32 58.94089 22.65688 32678 ft 387 kts 230°
2026-05-07 14:32 58.92255 22.61938 32802 ft 388 kts 230°
2026-05-07 14:32 58.90387 22.58124 32946 ft 389 kts 229°
2026-05-07 14:32 58.88527 22.54336 33089 ft 390 kts 229°
2026-05-07 14:33 58.86670 22.50560 33232 ft 391 kts 230°
2026-05-07 14:33 58.84792 22.46749 33349 ft 392 kts 230°
2026-05-07 14:33 58.82905 22.42923 33465 ft 393 kts 230°
2026-05-07 14:33 58.81034 22.39135 33592 ft 394 kts 230°
2026-05-07 14:34 58.79131 22.35291 33733 ft 394 kts 230°
2026-05-07 14:34 58.77234 22.31470 33870 ft 394 kts 229°
2026-05-07 14:34 58.75366 22.27708 33991 ft 395 kts 229°
2026-05-07 14:35 58.71549 22.20041 34044 ft 397 kts 229°
2026-05-07 14:35 58.67731 22.12402 34050 ft 397 kts 229°
2026-05-07 14:36 58.63926 22.04810 34052 ft 397 kts 229°
2026-05-07 14:36 58.60102 21.97206 34052 ft 398 kts 229°
2026-05-07 14:37 58.56260 21.89595 34051 ft 398 kts 229°
2026-05-07 14:37 58.50460 21.78156 34051 ft 399 kts 229°
2026-05-07 14:38 58.46609 21.70590 34052 ft 399 kts 229°
2026-05-07 14:38 58.42742 21.63017 34043 ft 399 kts 229°
2026-05-07 14:39 58.38857 21.55438 34042 ft 401 kts 229°
2026-05-07 14:39 58.34966 21.47871 34044 ft 401 kts 229°
2026-05-07 14:40 58.31068 21.40313 34044 ft 401 kts 229°
2026-05-07 14:40 58.27153 21.32754 34047 ft 402 kts 227°
2026-05-07 14:41 58.23239 21.25223 34050 ft 403 kts 227°
2026-05-07 14:41 58.19329 21.17737 34047 ft 403 kts 227°
2026-05-07 14:42 58.15374 21.10244 34052 ft 404 kts 227°
2026-05-07 14:42 58.11404 21.02752 34054 ft 405 kts 227°
2026-05-07 14:43 58.07424 20.95264 34057 ft 406 kts 227°
2026-05-07 14:43 58.03410 20.87739 34062 ft 407 kts 227°
2026-05-07 14:44 57.99401 20.80246 34062 ft 407 kts 227°
2026-05-07 14:44 57.95393 20.72778 34056 ft 407 kts 227°
2026-05-07 14:45 57.91402 20.65371 34058 ft 407 kts 227°
2026-05-07 14:45 57.87350 20.57869 34053 ft 406 kts 227°
2026-05-07 14:46 57.83329 20.50456 34052 ft 407 kts 227°
2026-05-07 14:46 57.79322 20.43091 34045 ft 407 kts 227°
2026-05-07 14:47 57.75285 20.35695 34047 ft 408 kts 227°
2026-05-07 14:47 57.71218 20.28276 34049 ft 408 kts 226°
2026-05-07 14:48 57.67189 20.20822 34050 ft 409 kts 229°
2026-05-07 14:48 57.63416 20.12966 34050 ft 409 kts 230°
2026-05-07 14:49 57.59639 20.05091 34051 ft 408 kts 230°
2026-05-07 14:49 57.55842 19.97199 34049 ft 408 kts 230°
2026-05-07 14:50 57.52082 19.89404 34055 ft 408 kts 230°
2026-05-07 14:50 57.48299 19.81585 34055 ft 409 kts 230°
2026-05-07 14:51 57.44490 19.73737 34053 ft 409 kts 230°
2026-05-07 14:51 57.40703 19.65959 34055 ft 410 kts 230°
2026-05-07 14:52 57.36885 19.58143 34057 ft 410 kts 230°
2026-05-07 14:52 57.33070 19.50363 34060 ft 410 kts 230°
2026-05-07 14:53 57.29243 19.42580 34060 ft 411 kts 230°
2026-05-07 14:53 57.25403 19.34801 34063 ft 411 kts 229°
2026-05-07 14:54 57.21543 19.27005 34063 ft 411 kts 229°
2026-05-07 14:54 57.17684 19.19232 34060 ft 411 kts 229°
2026-05-07 14:55 57.13821 19.11481 34061 ft 412 kts 229°
2026-05-07 14:55 57.09962 19.03766 34062 ft 413 kts 229°
2026-05-07 14:56 57.06064 18.95997 34062 ft 413 kts 229°
2026-05-07 14:56 57.02191 18.88308 34058 ft 414 kts 229°
2026-05-07 14:57 56.98282 18.80572 34061 ft 414 kts 229°
2026-05-07 14:57 56.94369 18.72854 34066 ft 415 kts 229°
2026-05-07 14:58 56.90447 18.65137 34073 ft 415 kts 229°
2026-05-07 14:58 56.86530 18.57455 34074 ft 415 kts 229°
2026-05-07 14:59 56.82604 18.49782 34073 ft 415 kts 229°
2026-05-07 14:59 56.78662 18.42108 34074 ft 415 kts 229°
2026-05-07 15:00 56.74731 18.34477 34073 ft 415 kts 228°
2026-05-07 15:00 56.70766 18.26810 34073 ft 416 kts 228°
2026-05-07 15:01 56.66824 18.19205 34072 ft 417 kts 228°
2026-05-07 15:01 56.62828 18.11528 34072 ft 418 kts 228°
2026-05-07 15:02 56.58826 18.03860 34071 ft 419 kts 228°
2026-05-07 15:02 56.54834 17.96241 34070 ft 419 kts 228°
2026-05-07 15:03 56.50828 17.88616 34073 ft 418 kts 228°
2026-05-07 15:03 56.46846 17.81061 34075 ft 418 kts 228°
2026-05-07 15:04 56.42818 17.73446 34077 ft 418 kts 227°
2026-05-07 15:04 56.38830 17.65930 34081 ft 418 kts 227°
2026-05-07 15:05 56.34808 17.58375 34080 ft 418 kts 227°
2026-05-07 15:05 56.30766 17.50808 34082 ft 419 kts 227°
2026-05-07 15:06 56.26744 17.43301 34079 ft 419 kts 227°
2026-05-07 15:06 56.22713 17.35805 34078 ft 420 kts 227°
2026-05-07 15:07 56.18639 17.28249 34080 ft 420 kts 226°
2026-05-07 15:07 56.14602 17.20787 34077 ft 421 kts 226°
2026-05-07 15:08 56.10511 17.13251 34067 ft 423 kts 226°
2026-05-07 15:08 56.06413 17.05727 34059 ft 424 kts 226°
2026-05-07 15:09 56.02300 16.98198 34061 ft 424 kts 226°
2026-05-07 15:09 55.98202 16.90725 34060 ft 425 kts 226°
2026-05-07 15:10 55.94064 16.83201 34059 ft 425 kts 226°
2026-05-07 15:10 55.89945 16.75735 34060 ft 426 kts 226°
2026-05-07 15:11 55.85760 16.68173 34060 ft 426 kts 226°
2026-05-07 15:11 55.81637 16.60746 34057 ft 426 kts 226°
2026-05-07 15:12 55.77456 16.53241 34057 ft 426 kts 226°
2026-05-07 15:12 55.73317 16.45837 34057 ft 426 kts 226°
2026-05-07 15:13 55.69159 16.38419 34061 ft 426 kts 226°
2026-05-07 15:13 55.64961 16.30957 34058 ft 427 kts 226°
2026-05-07 15:14 55.60807 16.23592 34058 ft 426 kts 226°
2026-05-07 15:14 55.56623 16.16200 34060 ft 426 kts 225°
2026-05-07 15:15 55.52441 16.08835 34058 ft 427 kts 225°
2026-05-07 15:15 55.48227 16.01438 34055 ft 427 kts 225°
2026-05-07 15:16 55.44008 15.94054 34057 ft 427 kts 225°
2026-05-07 15:16 55.39808 15.86731 34060 ft 427 kts 225°
2026-05-07 15:17 55.35606 15.79426 34058 ft 427 kts 225°
2026-05-07 15:17 55.31385 15.72109 34058 ft 427 kts 225°
2026-05-07 15:18 55.27159 15.64805 34056 ft 427 kts 225°
2026-05-07 15:18 55.22930 15.57524 34059 ft 428 kts 225°
2026-05-07 15:19 55.18704 15.50266 34058 ft 429 kts 225°
2026-05-07 15:19 55.14423 15.42942 34056 ft 429 kts 225°
2026-05-07 15:20 55.10175 15.35695 34058 ft 430 kts 225°
2026-05-07 15:20 55.05888 15.28404 34054 ft 430 kts 224°
2026-05-07 15:21 55.01609 15.21149 34056 ft 430 kts 224°
2026-05-07 15:21 54.97319 15.13901 34059 ft 431 kts 224°
2026-05-07 15:22 54.93015 15.06650 34060 ft 431 kts 224°
2026-05-07 15:22 54.88710 14.99425 34064 ft 432 kts 224°
2026-05-07 15:23 54.84388 14.92194 34064 ft 433 kts 224°
2026-05-07 15:23 54.80039 14.84939 34061 ft 432 kts 224°
2026-05-07 15:24 54.75721 14.77811 34059 ft 433 kts 224°
2026-05-07 15:24 54.71339 14.70617 34061 ft 433 kts 224°
2026-05-07 15:25 54.66965 14.63454 34057 ft 434 kts 224°
2026-05-07 15:25 54.62607 14.56339 34058 ft 434 kts 224°
2026-05-07 15:26 54.58225 14.49207 34059 ft 434 kts 224°
2026-05-07 15:26 54.53828 14.42079 34059 ft 434 kts 224°
2026-05-07 15:27 54.49321 14.35154 34056 ft 435 kts 220°
2026-05-07 15:27 54.44400 14.29083 34055 ft 435 kts 212°
2026-05-07 15:28 54.39123 14.24026 34047 ft 435 kts 206°
2026-05-07 15:28 54.33639 14.19604 34057 ft 435 kts 205°
2026-05-07 15:29 54.28196 14.15198 34045 ft 435 kts 205°
2026-05-07 15:29 54.25446 14.12977 33854 ft 435 kts 205°
2026-05-07 15:29 54.22689 14.10902 33651 ft 433 kts 202°
2026-05-07 15:30 54.19888 14.09114 33440 ft 431 kts 199°
2026-05-07 15:30 54.17036 14.07603 33229 ft 428 kts 197°
2026-05-07 15:30 54.14175 14.06166 32868 ft 426 kts 197°
2026-05-07 15:30 54.11322 14.04724 32347 ft 425 kts 197°
2026-05-07 15:31 54.08516 14.03308 31725 ft 426 kts 197°
2026-05-07 15:31 54.05661 14.01870 31042 ft 428 kts 197°
2026-05-07 15:31 54.02804 14.00435 30268 ft 429 kts 197°
2026-05-07 15:31 53.99969 13.99013 29527 ft 430 kts 197°
2026-05-07 15:32 53.97056 13.97715 28895 ft 427 kts 193°
2026-05-07 15:32 53.94156 13.96767 28420 ft 422 kts 189°
2026-05-07 15:32 53.91243 13.96156 27962 ft 419 kts 186°
2026-05-07 15:32 53.88355 13.95782 27480 ft 416 kts 185°
2026-05-07 15:33 53.85486 13.95419 26986 ft 413 kts 185°
2026-05-07 15:33 53.82705 13.95069 26505 ft 410 kts 185°
2026-05-07 15:33 53.79864 13.94711 26010 ft 406 kts 185°
2026-05-07 15:33 53.77034 13.94355 25513 ft 403 kts 185°
2026-05-07 15:34 53.74262 13.94008 25016 ft 400 kts 185°
2026-05-07 15:34 53.71481 13.93658 24519 ft 397 kts 185°
2026-05-07 15:34 53.68757 13.93315 24026 ft 394 kts 185°
2026-05-07 15:34 53.65998 13.92964 23522 ft 392 kts 186°
2026-05-07 15:35 53.63318 13.92410 23012 ft 390 kts 190°
2026-05-07 15:35 53.60648 13.91495 22533 ft 387 kts 195°
2026-05-07 15:35 53.58074 13.90267 22132 ft 385 kts 198°
2026-05-07 15:35 53.55522 13.88960 21683 ft 383 kts 198°
2026-05-07 15:36 53.52987 13.87658 21223 ft 381 kts 198°
2026-05-07 15:36 53.50480 13.86374 20763 ft 380 kts 198°
2026-05-07 15:36 53.47936 13.85074 20293 ft 378 kts 198°
2026-05-07 15:36 53.45450 13.83807 19838 ft 377 kts 197°
2026-05-07 15:37 53.42923 13.82522 19367 ft 376 kts 197°
2026-05-07 15:37 53.40438 13.81260 18898 ft 375 kts 197°
2026-05-07 15:37 53.37940 13.79993 18430 ft 374 kts 197°
2026-05-07 15:37 53.35477 13.78746 17978 ft 373 kts 197°
2026-05-07 15:38 53.32980 13.77484 17509 ft 372 kts 197°
2026-05-07 15:38 53.30526 13.76245 17045 ft 371 kts 197°
2026-05-07 15:38 53.28043 13.74994 16572 ft 371 kts 197°
2026-05-07 15:38 53.25590 13.73759 16110 ft 370 kts 197°
2026-05-07 15:39 53.23124 13.72520 15641 ft 369 kts 197°
2026-05-07 15:39 53.20688 13.71296 15170 ft 368 kts 197°
2026-05-07 15:39 53.18219 13.70057 14692 ft 367 kts 197°
2026-05-07 15:39 53.15792 13.68840 14213 ft 366 kts 197°
2026-05-07 15:40 53.13313 13.67838 13749 ft 365 kts 191°
2026-05-07 15:40 53.10824 13.67275 13297 ft 363 kts 185°
2026-05-07 15:40 53.08299 13.66992 12841 ft 362 kts 183°
2026-05-07 15:40 53.05785 13.66757 12385 ft 360 kts 183°
2026-05-07 15:41 53.03317 13.66529 11929 ft 359 kts 183°
2026-05-07 15:41 53.00840 13.66293 11472 ft 357 kts 183°
2026-05-07 15:41 52.98344 13.66049 11009 ft 356 kts 183°
2026-05-07 15:41 52.95887 13.65804 10602 ft 352 kts 184°
2026-05-07 15:42 52.93519 13.64973 10211 ft 348 kts 205°
2026-05-07 15:42 52.91670 13.62564 9986 ft 336 kts 234°
2026-05-07 15:42 52.90540 13.59279 10010 ft 318 kts 244°
2026-05-07 15:42 52.89548 13.56086 10009 ft 303 kts 244°
2026-05-07 15:43 52.88593 13.53078 10010 ft 293 kts 243°
2026-05-07 15:43 52.87629 13.50099 10036 ft 293 kts 243°
2026-05-07 15:43 52.86661 13.47146 10023 ft 293 kts 243°
2026-05-07 15:43 52.85681 13.44183 10028 ft 293 kts 242°
2026-05-07 15:44 52.84724 13.41304 10032 ft 293 kts 242°
2026-05-07 15:44 52.83723 13.38305 10040 ft 293 kts 242°
2026-05-07 15:44 52.82751 13.35399 10044 ft 292 kts 242°
2026-05-07 15:44 52.81767 13.32463 10041 ft 292 kts 242°
2026-05-07 15:45 52.80769 13.29491 10031 ft 292 kts 241°
2026-05-07 15:45 52.79788 13.26575 10024 ft 292 kts 240°
2026-05-07 15:45 52.78512 13.23969 9885 ft 292 kts 216°
2026-05-07 15:45 52.76754 13.22305 9774 ft 292 kts 205°
2026-05-07 15:46 52.73085 13.19496 9526 ft 292 kts 205°
2026-05-07 15:46 52.71267 13.18026 9396 ft 291 kts 206°
2026-05-07 15:46 52.69467 13.16514 9276 ft 291 kts 207°
2026-05-07 15:47 52.67675 13.14976 9152 ft 291 kts 207°
2026-05-07 15:47 52.65886 13.13420 9019 ft 291 kts 208°
2026-05-07 15:47 52.64093 13.11851 8895 ft 290 kts 208°
2026-05-07 15:47 52.62300 13.10278 8768 ft 290 kts 208°
2026-05-07 15:48 52.60523 13.08719 8652 ft 289 kts 208°
2026-05-07 15:48 52.58752 13.07165 8531 ft 289 kts 208°
2026-05-07 15:48 52.56974 13.05607 8400 ft 288 kts 208°
2026-05-07 15:48 52.55210 13.04060 8267 ft 288 kts 208°
2026-05-07 15:49 52.53435 13.02506 8138 ft 288 kts 208°
2026-05-07 15:49 52.51678 13.00970 8009 ft 287 kts 208°
2026-05-07 15:49 52.49917 12.99431 7856 ft 286 kts 207°
2026-05-07 15:49 52.48164 12.97901 7674 ft 286 kts 207°
2026-05-07 15:50 52.46402 12.96364 7461 ft 286 kts 207°
2026-05-07 15:50 52.44602 12.95023 7133 ft 285 kts 192°
2026-05-07 15:50 52.42663 12.95125 6755 ft 280 kts 158°
2026-05-07 15:50 52.41055 12.96742 6465 ft 272 kts 138°
2026-05-07 15:51 52.39577 12.98686 6230 ft 268 kts 139°
2026-05-07 15:51 52.38059 13.00401 5988 ft 266 kts 153°
2026-05-07 15:51 52.36295 13.01209 5750 ft 264 kts 169°
2026-05-07 15:51 52.34491 13.01602 5412 ft 260 kts 170°
2026-05-07 15:52 52.32790 13.02439 4887 ft 256 kts 142°
2026-05-07 15:52 52.31623 13.04499 4516 ft 248 kts 122°
2026-05-07 15:52 52.30595 13.06752 4256 ft 245 kts 124°
2026-05-07 15:52 52.29538 13.08940 4006 ft 242 kts 125°
2026-05-07 15:53 52.28492 13.11064 3770 ft 239 kts 126°
2026-05-07 15:53 52.27507 13.13233 3528 ft 233 kts 111°
2026-05-07 15:53 52.27217 13.15712 3245 ft 224 kts 81°
2026-05-07 15:54 52.28849 13.22753 3119 ft 222 kts 65°
2026-05-07 15:54 52.29430 13.25077 2971 ft 220 kts 67°
2026-05-07 15:54 52.29964 13.27334 2667 ft 206 kts 67°
2026-05-07 15:55 52.30473 13.29522 2395 ft 204 kts 67°
2026-05-07 15:55 52.30968 13.31647 2200 ft 191 kts 67°
2026-05-07 15:55 52.31417 13.33571 1933 ft 176 kts 67°
2026-05-07 15:55 52.31838 13.35367 1707 ft 163 kts 67°
2026-05-07 15:56 52.32227 13.37023 1449 ft 149 kts 67°
2026-05-07 15:56 52.32586 13.38543 1232 ft 140 kts 68°
2026-05-07 15:56 52.32937 13.40031 1059 ft 139 kts 68°
2026-05-07 15:56 52.33282 13.41497 900 ft 139 kts 68°
2026-05-07 15:57 52.33620 13.42989 696 ft 139 kts 69°
2026-05-07 15:57 52.33962 13.44448 479 ft 138 kts 68°
2026-05-07 15:57 52.34317 13.45919 327 ft 138 kts 69°
2026-05-07 15:57 52.34663 13.47357 195 ft 137 kts 69°
2026-05-07 15:58 52.34988 13.48719 166 ft 110 kts 69°
2026-05-07 15:58 52.35208 13.49654 166 ft 73 kts 69°
2026-05-07 15:58 52.35381 13.50384 166 ft 64 kts 69°
2026-05-07 15:58 52.35509 13.50592 166 ft 17 kts 41°
2026-05-07 15:59 52.35606 13.50723 166 ft 17 kts 38°
2026-05-07 15:59 52.35704 13.50837 166 ft 17 kts 16°
2026-05-07 15:59 52.35790 13.50814 166 ft 9 kts 341°
2026-05-07 15:59 52.35841 13.50784 166 ft 0 kts 337°
2026-05-07 16:00 52.35857 13.50773 166 ft 4 kts 339°
2026-05-07 16:00 52.35895 13.50777 166 ft 10 kts 31°
2026-05-07 16:00 52.35937 13.50908 166 ft 14 kts 70°
2026-05-07 16:00 52.35972 13.51060 166 ft 14 kts 68°
2026-05-07 16:01 52.35999 13.51154 166 ft 2 kts 17°
2026-05-07 16:01 52.36037 13.51144 166 ft 6 kts 340°
2026-05-07 16:01 52.36073 13.51122 166 ft 0 kts 338°
2026-05-07 16:01 52.36075 13.51121 166 ft 0 kts 338°
2026-05-07 16:02 52.36076 13.51121 166 ft 0 kts 338°